Mount Pocono, PA

3:40 AM EDT on July 25, 2016 (GMT -0400)
Pocono Mountains Municipal

Weather History for KMPO - November, 2013

Change the Weather History Date:

Tuesday, November 12, 2013

  Actual Average Record
Temperature  
Mean Temperature 33 °F 40 °F  
Max Temperature 44 °F 48 °F 70 °F (1909)
Min Temperature 22 °F 33 °F 15 °F (1976)
Degree Days  
Heating Degree Days 32 25  
Month to date heating degree days 291 276  
Since 1 July heating degree days 1022 1064  
Cooling Degree Days 0 0  
Month to date cooling degree days 0 0  
Year to date cooling degree days 467 314  
Moisture  
Dew Point 19 °F    
Average Humidity 65    
Maximum Humidity 85    
Minimum Humidity 45    
Precipitation  
Precipitation 0.05 in 0.13 in 1.34 in (1970)
Month to date precipitation 0.77 1.60  
Year to date precipitation 39.57 41.90  
Sea Level Pressure  
Sea Level Pressure 30.09 in    
Wind  
Wind Speed 16 mph (NW)    
Max Wind Speed 24 mph    
Max Gust Speed 36 mph    
Visibility 7 miles    
Events Rain , Snow    
T = Trace of Precipitation, MM = Missing Value Source: NWS Daily Summary

Daily Weather History Graph

Daily Weather History Graph

Search for Another Location

Airport or City:

Trip Planner

Search our weather history database for the weather conditions in past years. The results will help you decide how hot, cold, wet, or windy it might be!

Date:

Astronomy

Nov. 12, 2013 Rise Set
Actual Time 6:46 AM EST 4:44 PM EST
Civil Twilight 6:16 AM EST 5:14 PM EST
Nautical Twilight 5:43 AM EST 5:47 PM EST
Astronomical Twilight 5:10 AM EST 6:19 PM EST
Moon 2:00 PM EST (11/12) 1:30 AM EST (11/12)
Length of Visible Light 10h 57m
Length of Day
9h 58m
Waxing Gibbous, 76% of the Moon is Illuminated
Nov 12
Waxing Gibbous
Nov 17
Full
Nov 25
Last Quarter
Dec 2
New
Dec 9
First Quarter

Hourly Weather History & Observations

Time (EST) Temp. Windchill Dew Point Humidity Pressure Visibility Wind Dir Wind Speed Gust Speed Precip Events Conditions
12:53 AM 43.0 °F 35.4 °F 27.0 °F 53% 29.95 in 10.0 mi West 16.1 mph 26.5 mph N/A   Overcast
1:53 AM 41.0 °F 33.1 °F 28.9 °F 62% 29.95 in 10.0 mi WNW 15.0 mph 23.0 mph 0.00 in Rain Light Rain
2:31 AM 36.0 °F 26.7 °F 30.0 °F 79% 29.94 in 10.0 mi NW 15.0 mph 31.1 mph 0.00 in Rain Light Rain
2:40 AM 33.1 °F 23.0 °F 30.0 °F 89% 29.95 in 2.5 mi NW 15.0 mph 21.9 mph 0.00 in Snow Light Snow
2:43 AM 33.1 °F 21.9 °F 28.9 °F 85% 29.95 in 1.5 mi NNW 18.4 mph 28.8 mph 0.00 in Snow Light Snow
2:48 AM 32.0 °F 22.1 °F 28.4 °F 87% 29.95 in 1.2 mi NNW 13.8 mph 28.8 mph 0.00 in Snow Light Snow
2:53 AM 30.9 °F 19.4 °F 27.0 °F 85% 30.00 in 1.5 mi NNW 17.3 mph 26.5 mph 0.00 in Snow Light Snow
3:08 AM 30.0 °F 19.1 °F 27.0 °F 88% 29.95 in 2.5 mi NNW 15.0 mph 20.7 mph 0.00 in Snow Light Snow
3:21 AM 30.0 °F 17.5 °F 24.1 °F 79% 29.95 in 6.0 mi NNW 19.6 mph 33.4 mph 0.00 in Snow Light Snow
3:28 AM 30.0 °F 18.7 °F 24.1 °F 79% 29.96 in 9.0 mi NNW 16.1 mph 26.5 mph 0.00 in   Overcast
3:53 AM 30.0 °F 18.3 °F 24.1 °F 79% 30.01 in 8.0 mi NW 17.3 mph 26.5 mph 0.00 in Snow Light Snow
4:38 AM 28.9 °F 18.6 °F 25.0 °F 85% 29.97 in 2.5 mi NNW 12.7 mph 25.3 mph 0.00 in Snow Light Snow
4:46 AM 28.9 °F 18.2 °F 25.0 °F 85% 29.97 in 1.8 mi NNW 13.8 mph 20.7 mph 0.00 in Snow Light Snow
4:53 AM 28.9 °F 15.4 °F 24.1 °F 82% 30.03 in 2.0 mi North 21.9 mph 28.8 mph 0.00 in Snow Light Snow
5:00 AM 28.0 °F 16.1 °F 23.0 °F 81% 29.98 in 4.0 mi North 16.1 mph 31.1 mph 0.00 in Snow Light Snow
5:07 AM 28.0 °F 15.7 °F 23.0 °F 81% 29.98 in 4.0 mi NNW 17.3 mph 25.3 mph 0.00 in Snow Light Snow
5:53 AM 27.0 °F 13.9 °F 21.0 °F 78% 30.05 in 5.0 mi NNW 18.4 mph 25.3 mph 0.00 in Snow Light Snow
6:04 AM 26.1 °F 13.1 °F 21.9 °F 84% 30.00 in 2.5 mi NNW 17.3 mph 25.3 mph 0.00 in Snow Light Snow
6:17 AM 26.1 °F 16.2 °F 21.9 °F 84% 30.00 in 1.8 mi NNW 10.4 mph 20.7 mph 0.00 in Snow Light Snow
6:22 AM 26.1 °F 16.2 °F 21.9 °F 84% 30.01 in 2.0 mi NW 10.4 mph 20.7 mph 0.00 in Snow Light Snow
6:24 AM 26.1 °F 16.2 °F 21.9 °F 84% 30.01 in 3.0 mi NW 10.4 mph 18.4 mph 0.00 in Snow Light Snow
6:32 AM 26.1 °F 14.0 °F 21.0 °F 81% 30.01 in 6.0 mi NW 15.0 mph 24.2 mph 0.00 in Snow Light Snow
6:53 AM 26.1 °F 13.1 °F 16.0 °F 66% 30.08 in 9.0 mi NNW 17.3 mph 27.6 mph 0.00 in   Overcast
7:53 AM 26.1 °F 12.7 °F 18.0 °F 71% 30.11 in 10.0 mi NW 18.4 mph 28.8 mph 0.00 in   Overcast
8:53 AM 25.0 °F 11.3 °F 17.1 °F 72% 30.13 in 10.0 mi NNW 18.4 mph 31.1 mph N/A   Overcast
9:40 AM 26.1 °F 13.6 °F 16.0 °F 66% 30.09 in 10.0 mi NW 16.1 mph 23.0 mph N/A   Mostly Cloudy
9:53 AM 26.1 °F 12.0 °F 16.0 °F 66% 30.15 in 10.0 mi NNW 20.7 mph 31.1 mph N/A   Scattered Clouds
10:25 AM 26.1 °F 14.5 °F 16.0 °F 66% 30.10 in 10.0 mi NW 13.8 mph 23.0 mph N/A   Mostly Cloudy
10:53 AM 26.1 °F 14.5 °F 16.0 °F 66% 30.17 in 10.0 mi NW 13.8 mph 23.0 mph N/A   Overcast
11:21 AM 25.0 °F 11.7 °F 12.0 °F 58% 30.12 in 10.0 mi North 17.3 mph 29.9 mph N/A   Scattered Clouds
11:50 AM 26.6 °F 13.4 °F 15.8 °F 64% 30.11 in 10.0 mi NNW 18.4 mph 31.1 mph N/A   Mostly Cloudy
11:53 AM 26.1 °F 14.5 °F 14.0 °F 60% 30.16 in 10.0 mi NNW 13.8 mph 31.1 mph N/A   Overcast
12:53 PM 26.1 °F 11.6 °F 14.0 °F 60% 30.16 in 10.0 mi NNW 21.9 mph 34.5 mph N/A   Mostly Cloudy
1:37 PM 28.0 °F 16.1 °F 14.0 °F 56% 30.10 in 10.0 mi NNW 16.1 mph 26.5 mph N/A   Scattered Clouds
1:53 PM 28.0 °F 16.1 °F 15.1 °F 58% 30.17 in 10.0 mi NW 16.1 mph 27.6 mph N/A   Mostly Cloudy
2:32 PM 27.0 °F 12.8 °F 14.0 °F 58% 30.12 in 10.0 mi NNW 21.9 mph 31.1 mph N/A   Mostly Cloudy
2:53 PM 27.0 °F 13.9 °F 15.1 °F 61% 30.19 in 10.0 mi NW 18.4 mph 31.1 mph N/A   Mostly Cloudy
3:41 PM 27.0 °F 15.2 °F 15.1 °F 61% 30.13 in 10.0 mi NW 15.0 mph 27.6 mph N/A   Scattered Clouds
3:53 PM 26.1 °F 11.6 °F 14.0 °F 60% 30.21 in 10.0 mi NW 21.9 mph 35.7 mph N/A   Mostly Cloudy
4:06 PM 26.1 °F 12.7 °F 12.9 °F 58% 30.14 in 10.0 mi NNW 18.4 mph 32.2 mph N/A   Scattered Clouds
4:23 PM 26.1 °F 12.3 °F 14.0 °F 60% 30.16 in 10.0 mi NNW 19.6 mph 26.5 mph N/A   Mostly Cloudy
4:53 PM 25.0 °F 13.6 °F 14.0 °F 63% 30.24 in 10.0 mi NW 12.7 mph 24.2 mph N/A   Scattered Clouds
5:53 PM 24.1 °F 13.1 °F 12.9 °F 62% 30.25 in 10.0 mi NNW 11.5 mph 19.6 mph N/A   Clear
6:53 PM 24.1 °F 14.4 °F 12.9 °F 62% 30.27 in 10.0 mi NW 9.2 mph 20.7 mph N/A   Clear
7:53 PM 23.0 °F 13.9 °F 14.0 °F 68% 30.29 in 10.0 mi NW 8.1 mph - N/A   Clear
8:53 PM 21.9 °F 11.0 °F 14.0 °F 72% 30.29 in - NW 10.4 mph - N/A   Unknown
9:53 PM 23.0 °F 10.6 °F 10.9 °F 60% 30.29 in 10.0 mi NW 13.8 mph - N/A   Clear
10:53 PM 21.9 °F 11.0 °F 10.9 °F 63% 30.29 in 10.0 mi WNW 10.4 mph - N/A   Scattered Clouds
11:53 PM 21.9 °F 9.8 °F 12.0 °F 66% 30.29 in 10.0 mi NW 12.7 mph - N/A   Clear